Time,TemperatureF,DewpointF,PressureIn,WindDirection,WindDirectionDegrees,WindSpeedMPH,WindSpeedGustMPH,Humidity,HourlyPrecipIn,Conditions,Clouds,dailyrainin,SoftwareType,DateUTC
2013-01-01 08:40:00,25.2,22.4,30.44,North,4,0.0,0.0,89,0.00,,,0.00,Wunderground v.1.15,2013-01-01 15:40:00,
2013-01-01 08:50:00,25.7,22.4,30.44,NE,44,0.0,0.0,87,0.00,,,0.00,Wunderground v.1.15,2013-01-01 15:50:00,
2013-01-01 09:00:00,25.4,21.8,30.44,ENE,68,0.0,0.0,86,0.00,,,0.00,Wunderground v.1.15,2013-01-01 16:00:00,
2013-01-01 09:10:00,25.7,22.6,30.45,NE,41,0.0,0.0,88,0.00,,,0.00,Wunderground v.1.15,2013-01-01 16:10:00,
2013-01-01 09:20:00,26.3,22.4,30.45,NE,41,0.0,0.0,85,0.00,,,0.00,Wunderground v.1.15,2013-01-01 16:20:00,
2013-01-01 09:30:00,27.1,22.9,30.45,WNW,300,0.0,1.0,84,0.00,,,0.00,Wunderground v.1.15,2013-01-01 16:30:00,
2013-01-01 09:40:00,28.0,23.8,30.46,West,277,0.0,0.0,84,0.00,,,0.00,Wunderground v.1.15,2013-01-01 16:40:00,
2013-01-01 09:50:00,29.5,24.4,30.46,WNW,288,0.0,0.0,81,0.00,,,0.00,Wunderground v.1.15,2013-01-01 16:50:00,
2013-01-01 10:00:00,30.8,25.1,30.46,West,281,0.0,0.0,79,0.00,,,0.00,Wunderground v.1.15,2013-01-01 17:00:00,
2013-01-01 10:10:00,31.8,24.5,30.46,NW,310,0.0,0.0,74,0.00,,,0.00,Wunderground v.1.15,2013-01-01 17:10:00,
2013-01-01 10:20:00,32.7,25.0,30.46,NNW,346,1.0,2.0,73,0.00,,,0.00,Wunderground v.1.15,2013-01-01 17:20:00,
2013-01-01 10:30:00,33.2,25.8,30.46,NNW,329,1.0,2.0,74,0.00,,,0.00,Wunderground v.1.15,2013-01-01 17:30:00,
2013-01-01 10:40:00,33.5,25.4,30.46,NNW,337,1.0,1.0,72,0.00,,,0.00,Wunderground v.1.15,2013-01-01 17:40:00,
2013-01-01 10:50:00,34.0,24.9,30.46,North,357,0.0,1.0,69,0.00,,,0.00,Wunderground v.1.15,2013-01-01 17:50:00,
2013-01-01 11:00:00,34.7,25.9,30.45,NE,36,0.0,1.0,70,0.00,,,0.00,Wunderground v.1.15,2013-01-01 18:00:00,
2013-01-01 11:10:00,35.6,27.1,30.44,NNW,345,1.0,1.0,71,0.00,,,0.00,Wunderground v.1.15,2013-01-01 18:10:00,
2013-01-01 11:20:00,36.3,26.7,30.43,NNE,16,1.0,1.0,68,0.00,,,0.00,Wunderground v.1.15,2013-01-01 18:20:00,
2013-01-01 11:30:00,37.1,27.9,30.43,ENE,68,1.0,1.0,69,0.00,,,0.00,Wunderground v.1.15,2013-01-01 18:30:00,
2013-01-01 11:40:00,37.6,27.6,30.42,NNE,27,2.0,2.0,67,0.00,,,0.00,Wunderground v.1.15,2013-01-01 18:40:00,
2013-01-01 11:50:00,37.8,27.8,30.42,ENE,58,1.0,1.0,67,0.00,,,0.00,Wunderground v.1.15,2013-01-01 18:50:00,
2013-01-01 12:00:00,38.0,26.9,30.41,ENE,58,1.0,1.0,64,0.00,,,0.00,Wunderground v.1.15,2013-01-01 19:00:00,
2013-01-01 12:10:00,38.8,28.0,30.40,NE,46,1.0,2.0,65,0.00,,,0.00,Wunderground v.1.15,2013-01-01 19:10:00,
2013-01-01 12:20:00,39.2,28.4,30.39,NE,52,1.0,1.0,65,0.00,,,0.00,Wunderground v.1.15,2013-01-01 19:20:00,
2013-01-01 12:30:00,38.9,27.8,30.39,East,88,1.0,1.0,64,0.00,,,0.00,Wunderground v.1.15,2013-01-01 19:30:00,
2013-01-01 12:50:00,40.1,26.9,30.38,East,85,1.0,1.0,59,0.00,,,0.00,Wunderground v.1.15,2013-01-01 19:50:00,
2013-01-01 13:00:00,40.7,27.5,30.37,ENE,65,1.0,1.0,59,0.00,,,0.00,Wunderground v.1.15,2013-01-01 20:00:00,
2013-01-01 13:10:00,40.5,26.0,30.37,East,79,1.0,2.0,56,0.00,,,0.00,Wunderground v.1.15,2013-01-01 20:10:00,
2013-01-01 13:20:00,40.2,25.7,30.37,South,180,1.0,1.0,56,0.00,,,0.00,Wunderground v.1.15,2013-01-01 20:20:00,
2013-01-01 13:30:00,41.4,26.9,30.36,East,94,1.0,3.0,56,0.00,,,0.00,Wunderground v.1.15,2013-01-01 20:30:00,
2013-01-01 13:40:00,41.4,26.0,30.36,NE,48,2.0,2.0,54,0.00,,,0.01,Wunderground v.1.15,2013-01-01 20:40:00,
2013-01-01 13:50:00,41.6,24.8,30.36,North,350,1.0,2.0,51,0.00,,,0.01,Wunderground v.1.15,2013-01-01 20:50:00,
2013-01-01 14:00:00,42.3,25.4,30.36,ESE,116,1.0,1.0,51,0.00,,,0.01,Wunderground v.1.15,2013-01-01 21:00:00,
2013-01-01 14:10:00,42.9,25.5,30.35,East,79,1.0,1.0,50,0.00,,,0.01,Wunderground v.1.15,2013-01-01 21:10:00,
2013-01-01 14:20:00,43.0,23.6,30.35,ENE,59,2.0,3.0,46,0.00,,,0.01,Wunderground v.1.15,2013-01-01 21:20:00,
2013-01-01 14:30:00,43.0,22.5,30.35,ENE,60,2.0,2.0,44,0.00,,,0.01,Wunderground v.1.15,2013-01-01 21:30:00,
2013-01-01 14:40:00,43.5,23.0,30.35,North,8,2.0,2.0,44,0.00,,,0.01,Wunderground v.1.15,2013-01-01 21:40:00,
2013-01-01 14:50:00,43.5,23.5,30.35,NNW,338,3.0,3.0,45,0.00,,,0.01,Wunderground v.1.15,2013-01-01 21:50:00,
2013-01-01 15:00:00,44.1,23.0,30.35,North,9,2.0,5.0,43,0.00,,,0.01,Wunderground v.1.15,2013-01-01 22:00:00,
2013-01-01 15:10:00,44.5,22.2,30.34,North,4,2.0,2.0,41,0.00,,,0.01,Wunderground v.1.15,2013-01-01 22:10:00,
2013-01-01 15:20:00,44.4,21.6,30.35,NE,40,2.0,2.0,40,0.00,,,0.01,Wunderground v.1.15,2013-01-01 22:20:00,
2013-01-01 15:30:00,45.0,22.1,30.35,NNE,19,1.0,3.0,40,0.00,,,0.01,Wunderground v.1.15,2013-01-01 22:30:00,
2013-01-01 15:40:00,44.8,21.3,30.35,NNE,25,2.0,2.0,39,0.00,,,0.01,Wunderground v.1.15,2013-01-01 22:40:00,
2013-01-01 15:50:00,44.5,20.4,30.34,NE,42,1.0,3.0,38,0.00,,,0.01,Wunderground v.1.15,2013-01-01 22:50:00,
2013-01-01 16:00:00,44.6,21.7,30.34,North,6,2.0,2.0,40,0.00,,,0.01,Wunderground v.1.15,2013-01-01 23:00:00,
2013-01-01 16:10:00,44.7,21.2,30.34,NNW,334,1.0,1.0,39,0.00,,,0.01,Wunderground v.1.15,2013-01-01 23:10:00,
2013-01-01 20:40:00,28.2,17.2,30.41,WNW,298,2.0,5.0,63,0.00,,,0.01,Wunderground v.1.15,2013-01-02 03:40:00,
2013-01-01 20:50:00,28.7,16.9,30.41,WNW,288,1.0,1.0,61,0.00,,,0.01,Wunderground v.1.15,2013-01-02 03:50:00,
2013-01-01 21:00:00,28.4,16.7,30.41,West,276,0.0,0.0,61,0.00,,,0.01,Wunderground v.1.15,2013-01-02 04:00:00,
2013-01-01 21:10:00,28.0,16.6,30.42,NW,316,0.0,0.0,62,0.00,,,0.01,Wunderground v.1.15,2013-01-02 04:10:00,
2013-01-01 21:20:00,27.4,16.4,30.41,ENE,66,1.0,2.0,63,0.00,,,0.01,Wunderground v.1.15,2013-01-02 04:20:00,
2013-01-01 21:30:00,28.6,15.7,30.41,WNW,289,1.0,1.0,58,0.00,,,0.01,Wunderground v.1.15,2013-01-02 04:30:00,
2013-01-01 21:40:00,30.2,15.1,30.42,WNW,288,1.0,1.0,53,0.00,,,0.01,Wunderground v.1.15,2013-01-02 04:40:00,
2013-01-01 21:50:00,30.2,15.1,30.42,West,259,1.0,2.0,53,0.00,,,0.01,Wunderground v.1.15,2013-01-02 04:50:00,
2013-01-01 22:00:00,29.5,14.9,30.42,WNW,282,1.0,1.0,54,0.00,,,0.01,Wunderground v.1.15,2013-01-02 05:00:00,
2013-01-01 22:10:00,28.2,15.3,30.42,WNW,289,1.0,3.0,58,0.00,,,0.01,Wunderground v.1.15,2013-01-02 05:10:00,
2013-01-01 22:20:00,29.3,15.1,30.43,NNW,329,3.0,3.0,55,0.00,,,0.01,Wunderground v.1.15,2013-01-02 05:20:00,
2013-01-01 22:30:00,31.4,14.9,30.43,NNW,333,1.0,1.0,50,0.00,,,0.01,Wunderground v.1.15,2013-01-02 05:30:00,